Погода в Подтесове

Россия / Красноярский край     58°36′13″N   92°05′27″E
темп.,
°C
ветер,
м/с
пор.,
м/с
влажн.,
%
обл.,
%
осадки,
мм/ч
давл.,
гПа
погр.,
м
18 мая, ср
ср1801:00+16ю3126335 0.1 1004263
04:00+15ююз277484 0.3 1004186
07:00+18ююз41465100 0.6 1004606
10:00+22зюз5114544 0.1 10041435
13:00+23зюз6143267 0.1 10053125
16:00+25з6122431 0.0 10053542
19:00+21сз49385 0.0 10071707
22:00+15сз11604 0.0 101010
19 мая, чт
чт1901:00+13ссз1165100 0.0 101110
04:00+12ю117061 0.0 101212
07:00+15юв126035 0.0 1012194
10:00+20юв234274 0.0 10111010
13:00+24юв233298 0.0 10102355
16:00+25юв3429100 0.0 10072313
19:00+24вюв363879 0.0 1005266
22:00+19вюв41449100 0.0 1004472
20 мая, пт
пт2001:00+15з2486100 2.3 100488
04:00+15юз2790100 0.6 1004214
07:00+16з71278100 1.5 10061085
10:00+17зюз585819 0.0 10091599
13:00+21зюз6103189 0.0 10093095
16:00+21зюз5113079 0.0 10083646
19:00+20зюз3123390 0.0 10083121
22:00+15ююв335363 0.1 100859
21 мая, сб
сб2101:00+12юв1172100 0.2 100918
04:00+10ююз2783100 0.9 1009166
07:00+12зюз31069100 1.1 1009472
10:00+16зюз6114750 0.1 10092149
13:00+17юз4104581 0.3 10082224
16:00+18з3739100 0.1 10061290
19:00+17з254797 0.1 1007380
22:00+14зюз5116590 0.0 1009439
22 мая, вс
вс2201:00+10з228469 0.1 101036
04:00+8ююз119120 0.0 101110
07:00+12юв2371100 0.0 1012226
10:00+18юв3447100 0.0 1011866
13:00+22юв343799 0.0 10101215
16:00+23юв45356 0.0 10091271
19:00+22вюв4741100 0.0 1008797
22:00+15вюв31261100 0.0 1009253